Location: Unspecified
(0.0000°N, 0.0000°E)
Time: 11:39:36
(UTC+00:00)

N. Korean satellite - Pass Details

Date: 21 August 2017
Orbit: 462 x 515 km, 97.2° (Epoch: 22 August)

Event Time Altitude Azimuth Distance (km) Brightness Sun altitude
Rises 19:05:22 0° 191° (SSW) 2,498 10.2 -15.2°
Reaches altitude 10° 19:07:43 10° 207° (SSW) 1,626 9.4 -15.8°
Maximum altitude 19:10:27 22° 259° (W) 1,085 9.1 -16.5°
Drops below altitude 10° 19:13:13 10° 311° (NW) 1,639 10.2 -17.2°
Sets 19:15:37 0° 327° (NNW) 2,523 10.9 -17.7°
